Temp
25 25 25 24 25 24 22 22 23 23 22 21 21 20 21 19 18 17 17 16 16 16 16 15 14 14 14 14 14 14 14 13 14 14 14 14 14 13 12 11 11 11 10
25 25 25 24 24 25 25 24 23 22 23 22 22 21 21 20 18 17 16 16 16 16 16 15 14 14 14 14 14 14 14 14 14 14 14 13 12 12 11 11 11 11 10
26 26 27 24 26 25 25 24 25 24 23 22 20 20 18 18 17 17 17 16 16 16 16 15 15 14 14 14 14 14 14 15 15 15 14 14 14 13 12 11 10 10 10
26 27 26 25 25 25 25 25 24 24 24 21 21 21 21 21 22 19 18 17 16 16 15 15 15 14 15 14 14 14 14 15 15 14 14 14 13 12 11 10 10 9 8
25 26 26 26 26 25 25 27 26 24 23 23 21 21 20 20 20 18 17 17 16 15 15 14 14 14 14 14 14 14 14 15 14 14 14 13 12 11 10 10 9 9 9
24 25 25 26 26 26 24 24 23 25 25 23 21 21 20 19 18 18 18 17 16 15 14 14 14 14 14 14 14 13 14 14 14 14 13 13 11 10 9 8 9 9 10
23 23 24 25 24 24 23 24 24 25 25 23 21 21 20 19 19 18 19 18 16 15 14 14 14 13 14 13 13 13 13 13 13 13 12 11 10 8 7 6 5 5 7
22 22 22 22 23 23 23 22 22 23 23 22 22 20 18 19 19 19 19 18 18 16 15 14 13 13 13 13 13 13 13 12 12 12 11 10 9 7 6 5 5 4 4
20 21 22 22 22 22 23 20 22 22 23 24 22 18 18 18 19 18 18 18 17 16 15 14 13 12 12 12 12 12 12 11 11 10 9 8 7 6 6 5 5 4 3
16 17 18 19 20 21 22 21 20 21 22 22 22 19 19 18 18 18 18 17 17 17 16 15 12 12 11 11 11 11 10 10 9 8 8 7 6 6 5 5 4 4 3
14 15 16 18 19 20 21 21 20 21 20 18 19 17 14 16 17 18 18 17 16 17 16 14 13 11 11 11 10 10 10 9 8 8 7 6 5 5 5 4 4 4 3
15 15 15 17 18 19 20 21 21 20 20 18 17 15 15 15 17 19 18 18 18 17 15 13 12 11 10 10 9 9 8 8 7 7 5 5 4 4 4 4 4 3 3
15 15 16 16 17 18 20 20 18 18 17 16 16 14 15 14 17 19 20 17 15 14 12 11 10 8 7 7 7 7 7 7 5 5 4 2 2 3 4 4 4 3 3
14 14 15 16 17 18 19 19 16 15 15 15 14 14 15 14 17 20 19 15 14 12 12 10 9 8 9 6 6 5 4 4 3 3 2 1 2 3 4 3 3 3 2
13 13 14 15 16 17 17 19 16 14 14 15 15 15 14 15 17 16 14 13 13 11 11 10 8 6 5 4 4 4 4 2 2 3 2 1 2 3 4 3 2 2 2
12 11 12 14 14 15 16 17 17 16 15 15 14 14 15 14 14 14 13 13 12 10 10 8 8 6 4 3 2 3 2 1 1 1 0 1 2 3 3 3 2 1 1
11 11 11 11 13 14 14 15 16 17 14 14 14 15 15 15 14 14 13 12 11 10 8 7 6 5 3 2 2 1 2 1 1 -1 1 2 2 3 2 1 1 0 -1
11 12 11 11 12 13 15 15 15 15 15 13 13 13 13 14 14 13 12 11 9 8 7 5 5 3 3 2 2 1 -0 -0 -0 -1 1 1 2 1 1 1 0 -0 -0
11 10 10 10 10 12 14 14 14 15 15 15 15 14 13 13 12 12 11 9 8 7 6 6 4 3 2 1 0 0 0 -0 -2 0 0 1 1 1 1 0 -0 -0 -0
11 11 11 10 9 11 12 13 14 14 16 16 15 13 12 12 12 11 9 7 6 7 5 4 3 2 2 0 1 0 -0 -2 -1 -0 0 0 1 1 0 -1 -1 -0 0
10 11 11 10 10 10 10 13 13 13 18 17 16 14 11 11 11 9 8 6 6 5 4 3 2 1 0 -1 -0 -0 -0 -1 0 0 0 0 0 0 -0 -1 -1 -1 -0
10 10 10 9 10 9 10 11 12 13 11 13 15 13 10 9 9 8 7 5 5 4 3 2 0 -0 -0 0 -0 -0 -1 -1 0 0 0 -0 -0 -1 -1 -1 -1 -1 -1
9 10 9 9 9 9 9 10 11 11 10 12 13 12 9 9 7 6 5 3 4 4 2 0 -0 -0 -0 -1 -1 -0 -2 -1 -0 -0 -1 -1 -1 -1 -2 -2 -2 -2 -2
10 9 9 8 8 8 9 8 11 9 9 9 9 8 7 6 5 4 4 3 3 1 0 -1 -0 -0 -1 -1 -2 -1 -1 -1 -1 -1 -1 -1 -1 -1 -2 -2 -2 -2 -3
9 9 8 8 7 7 8 10 9 7 7 7 7 5 5 4 3 2 2 2 1 2 0 -0 0 -0 -1 -1 -1 -1 -1 -1 -1 -1 -2 -2 -2 -2 -3 -2 -2 -3 -4
8 8 8 7 7 6 7 9 8 5 6 6 5 4 3 2 2 1 -0 -1 -0 -1 0 0 0 -1 -1 -1 -1 -2 -2 -2 -2 -2 -2 -2 -3 -3 -3 -3 -3 -4 -4
Height
1466 1466 1468 1471 1474 1474 1477 1479 1481 1483 1485 1487 1490 1492 1492 1497 1501 1504 1508 1510 1512 1514 1517 1520 1523 1525 1528 1530 1532 1533 1535 1536 1536 1537 1537 1537 1535 1534 1533 1532 1531 1530 1529
1459 1460 1461 1462 1466 1467 1468 1471 1472 1477 1477 1478 1480 1485 1489 1491 1494 1498 1502 1504 1506 1508 1510 1513 1516 1519 1522 1524 1526 1529 1530 1532 1533 1533 1533 1533 1533 1531 1530 1529 1529 1528 1527
1453 1452 1452 1453 1453 1459 1460 1462 1464 1465 1468 1470 1474 1479 1485 1487 1489 1489 1493 1495 1499 1502 1505 1507 1510 1513 1515 1517 1520 1523 1525 1526 1528 1529 1529 1528 1527 1527 1527 1526 1525 1525 1524
1449 1447 1447 1447 1447 1449 1452 1453 1455 1457 1458 1462 1464 1467 1468 1471 1472 1478 1483 1487 1492 1496 1498 1500 1503 1505 1508 1510 1514 1517 1520 1521 1522 1523 1523 1522 1523 1523 1523 1522 1522 1522 1521
1447 1445 1444 1444 1444 1447 1445 1443 1444 1446 1449 1450 1453 1455 1460 1463 1468 1472 1475 1479 1484 1489 1493 1495 1496 1498 1501 1504 1507 1510 1513 1515 1516 1517 1517 1517 1518 1518 1519 1517 1517 1517 1517
1442 1443 1441 1440 1439 1439 1441 1442 1441 1439 1438 1439 1442 1443 1448 1454 1458 1461 1465 1472 1477 1481 1483 1485 1488 1489 1492 1497 1501 1505 1508 1510 1512 1512 1512 1513 1514 1514 1514 1514 1513 1511 1511
1437 1437 1437 1437 1435 1434 1433 1433 1433 1433 1432 1431 1431 1432 1437 1444 1448 1452 1457 1461 1467 1471 1474 1478 1479 1482 1486 1492 1496 1500 1503 1505 1507 1507 1508 1509 1510 1511 1511 1511 1511 1510 1508
1435 1432 1433 1432 1428 1426 1425 1423 1422 1424 1423 1422 1422 1423 1428 1433 1438 1444 1451 1455 1458 1461 1466 1472 1475 1479 1482 1486 1490 1494 1497 1500 1502 1503 1504 1504 1504 1507 1507 1508 1508 1507 1506
1436 1429 1427 1422 1419 1417 1415 1414 1412 1411 1410 1410 1412 1415 1417 1423 1426 1434 1445 1450 1453 1456 1462 1466 1470 1473 1475 1479 1484 1488 1491 1495 1498 1499 1500 1501 1501 1503 1503 1505 1505 1504 1502
1432 1427 1422 1419 1415 1411 1407 1404 1401 1397 1395 1398 1400 1403 1407 1412 1419 1427 1434 1442 1447 1451 1455 1459 1464 1468 1472 1476 1479 1482 1486 1490 1493 1495 1497 1498 1499 1501 1500 1501 1502 1500 1498
1427 1421 1415 1411 1409 1403 1399 1393 1388 1385 1385 1386 1391 1396 1403 1404 1410 1420 1426 1432 1438 1441 1445 1449 1454 1459 1464 1467 1472 1476 1479 1485 1490 1492 1494 1497 1500 1499 1498 1498 1498 1497 1494
1419 1417 1411 1403 1400 1397 1391 1383 1375 1374 1374 1375 1382 1390 1397 1397 1405 1413 1418 1425 1429 1433 1436 1441 1446 1452 1461 1467 1467 1471 1473 1479 1484 1488 1490 1493 1497 1497 1496 1496 1495 1493 1490
1415 1410 1404 1398 1394 1389 1382 1373 1367 1367 1370 1370 1375 1381 1388 1390 1399 1407 1414 1416 1422 1427 1434 1440 1442 1447 1457 1463 1474 1475 1475 1474 1478 1480 1483 1491 1493 1496 1493 1493 1492 1490 1486
1414 1407 1400 1393 1388 1382 1378 1369 1364 1365 1368 1371 1370 1374 1381 1385 1393 1401 1407 1410 1417 1423 1427 1432 1435 1443 1437 1453 1459 1474 1478 1479 1478 1476 1476 1485 1488 1491 1490 1490 1489 1486 1482
1411 1404 1398 1392 1388 1382 1376 1369 1365 1366 1369 1368 1369 1370 1377 1384 1388 1393 1398 1404 1411 1416 1420 1423 1430 1436 1449 1449 1448 1451 1468 1474 1471 1476 1478 1479 1485 1486 1486 1486 1485 1482 1478
1408 1402 1396 1390 1384 1380 1373 1370 1367 1367 1366 1366 1367 1369 1377 1378 1380 1386 1392 1399 1402 1407 1412 1417 1421 1430 1440 1446 1458 1457 1456 1464 1468 1474 1474 1478 1481 1482 1483 1481 1480 1478 1473
1403 1398 1394 1387 1380 1376 1371 1367 1366 1363 1362 1362 1360 1366 1369 1371 1375 1381 1387 1390 1394 1400 1407 1412 1418 1424 1431 1438 1446 1453 1455 1462 1467 1471 1472 1476 1478 1479 1479 1478 1477 1473 1470
1397 1392 1388 1381 1374 1369 1365 1360 1360 1357 1355 1355 1360 1361 1364 1366 1368 1373 1378 1381 1387 1392 1399 1407 1415 1421 1429 1433 1440 1446 1453 1461 1463 1464 1471 1473 1475 1477 1476 1475 1474 1471 1467
1393 1390 1383 1377 1370 1365 1361 1359 1357 1349 1349 1349 1351 1353 1356 1357 1360 1365 1369 1375 1380 1388 1395 1403 1410 1417 1423 1429 1435 1441 1449 1455 1458 1463 1468 1471 1472 1473 1473 1473 1471 1469 1464
1386 1381 1375 1372 1364 1358 1355 1349 1344 1341 1339 1340 1344 1346 1349 1353 1355 1357 1362 1370 1378 1384 1391 1401 1408 1413 1419 1425 1431 1436 1443 1449 1452 1459 1465 1467 1468 1470 1470 1470 1467 1465 1460
1378 1374 1370 1365 1358 1353 1346 1339 1336 1333 1334 1337 1337 1336 1341 1346 1348 1352 1357 1365 1371 1381 1388 1396 1403 1411 1417 1424 1429 1435 1440 1445 1449 1456 1461 1463 1465 1466 1466 1466 1464 1461 1457
1370 1367 1362 1355 1351 1349 1342 1332 1328 1325 1327 1326 1324 1327 1331 1337 1340 1344 1350 1359 1366 1374 1383 1387 1394 1404 1411 1419 1425 1432 1436 1441 1447 1453 1457 1460 1462 1463 1463 1462 1460 1458 1454
1363 1359 1355 1348 1343 1339 1334 1325 1318 1309 1310 1313 1317 1318 1323 1328 1333 1339 1345 1352 1359 1365 1376 1385 1392 1398 1409 1415 1423 1430 1434 1439 1445 1450 1454 1457 1459 1460 1460 1459 1457 1454 1451
1355 1350 1345 1340 1335 1330 1325 1316 1299 1297 1304 1307 1310 1316 1318 1322 1329 1336 1340 1344 1350 1359 1370 1380 1388 1395 1403 1413 1421 1428 1431 1439 1443 1447 1451 1455 1456 1457 1457 1457 1454 1452 1451
1345 1342 1336 1329 1326 1326 1321 1311 1302 1300 1300 1304 1307 1312 1317 1321 1328 1336 1341 1345 1351 1352 1360 1377 1384 1391 1400 1410 1419 1424 1430 1436 1441 1445 1449 1451 1453 1454 1455 1453 1451 1450 1450
1336 1332 1326 1320 1319 1317 1315 1302 1301 1300 1299 1299 1304 1311 1316 1319 1327 1335 1343 1349 1354 1362 1370 1374 1381 1393 1403 1412 1418 1424 1430 1436 1440 1444 1446 1448 1450 1451 1451 1450 1450 1449 1448
Wind_Speed
37 43 47 50 46 47 47 49 46 45 44 44 44 44 44 43 42 39 35 32 31 34 32 30 29 28 27 27 26 24 23 20 20 17 17 15 14 13 13 13 14 14 15
30 32 42 51 54 52 50 49 50 51 51 50 48 46 44 44 43 39 37 34 34 35 33 32 32 30 28 29 28 27 24 22 21 17 14 10 12 14 16 16 14 15 16
33 29 31 45 45 58 57 56 55 55 55 56 52 49 46 46 44 43 40 39 37 36 36 34 34 32 31 31 30 28 25 24 23 20 14 7 8 8 13 18 17 15 17
28 28 29 36 41 52 59 59 62 62 61 57 58 57 55 53 51 50 46 43 39 38 38 36 35 33 32 32 31 29 28 26 24 21 18 16 16 9 7 11 14 17 15
28 31 26 23 30 34 44 45 50 58 61 63 61 62 60 57 51 51 50 46 42 41 40 39 38 36 35 33 32 32 30 28 25 22 19 16 15 15 15 19 16 18 13
37 37 38 34 36 34 32 45 52 53 55 60 63 64 63 61 56 52 53 49 45 45 45 44 42 38 37 35 33 32 30 27 24 21 18 17 14 14 14 16 21 22 18
30 31 31 35 32 32 32 34 43 45 55 61 62 65 64 62 59 57 51 49 49 49 49 45 45 42 39 35 33 32 30 27 23 20 17 15 14 14 14 14 15 18 20
44 40 35 28 28 32 39 31 36 43 50 60 63 64 64 63 61 58 52 51 49 51 49 47 45 43 39 36 34 32 29 25 22 19 15 13 13 13 12 13 14 16 16
41 50 47 41 44 44 44 39 38 42 49 53 62 64 63 62 63 57 52 50 48 50 48 46 46 43 41 39 35 33 30 25 20 16 14 12 12 13 13 14 14 15 13
36 38 40 43 42 40 46 52 41 43 49 55 61 63 62 61 62 52 52 50 45 45 47 47 47 45 42 39 36 32 28 23 19 15 13 12 12 12 12 13 15 16 17
37 40 45 47 47 47 50 54 45 42 48 56 59 58 55 59 61 51 51 49 45 43 49 49 48 47 45 41 37 33 28 23 18 14 11 10 10 12 14 14 16 18 18
39 39 44 45 45 50 50 54 43 41 46 52 55 51 52 57 55 53 51 47 46 45 47 49 47 49 44 40 37 32 26 21 16 12 8 9 13 14 14 15 16 17 19
43 44 46 40 46 49 47 50 38 38 44 48 50 49 51 56 50 53 48 49 48 47 47 46 50 46 37 30 25 23 21 20 16 11 9 9 13 16 15 15 15 17 18
38 41 40 43 45 43 43 44 33 34 40 42 45 47 50 51 48 46 46 50 47 46 46 48 50 48 47 42 29 20 19 15 12 12 11 13 12 15 14 15 15 16 17
38 38 38 39 39 42 42 41 30 28 34 38 41 43 47 42 45 48 47 47 45 45 47 50 49 42 40 38 35 34 21 16 15 13 13 7 14 14 14 15 14 14 16
32 34 39 39 36 35 37 36 32 34 34 38 38 42 39 42 44 47 43 43 45 47 48 50 51 46 40 32 25 21 22 17 17 17 9 13 13 13 14 13 13 14 15
32 36 38 39 41 39 35 35 35 31 38 38 39 39 41 42 42 43 44 45 48 46 47 49 46 44 40 36 27 23 20 20 19 13 13 13 12 12 11 12 13 12 14
36 40 42 45 46 43 37 35 40 38 32 36 41 42 43 42 39 45 48 47 47 49 50 46 46 44 37 34 30 25 23 19 16 12 14 12 11 10 9 11 11 11 11
34 38 42 48 49 44 39 35 37 39 35 36 41 45 46 44 43 46 47 47 49 47 46 47 47 43 37 30 28 26 22 20 15 13 14 12 10 9 9 11 11 10 10
33 40 43 44 44 44 42 36 36 39 41 39 44 45 47 47 46 47 47 45 46 47 47 48 43 38 36 34 28 26 25 23 18 17 14 11 9 9 9 10 10 10 10
36 42 43 41 43 47 44 38 36 42 41 48 47 48 49 50 49 48 46 48 48 48 51 46 38 35 33 32 29 23 22 23 20 16 13 9 9 9 9 8 9 10 11
38 42 42 40 42 46 44 40 39 40 46 48 45 48 49 51 49 48 48 50 51 55 50 45 40 40 36 31 27 26 26 22 18 15 11 9 8 8 8 8 9 9 9
41 44 43 42 46 46 49 49 41 26 37 46 49 49 49 49 48 49 50 52 55 57 50 49 48 44 35 29 29 28 26 22 19 15 12 9 7 6 6 6 7 7 9
45 45 44 44 47 43 44 43 39 23 34 42 44 45 46 46 46 47 51 55 59 55 54 52 48 38 33 31 32 29 26 22 20 16 13 10 7 4 3 3 5 6 7
42 43 46 51 46 39 37 37 35 22 27 37 39 40 42 43 42 43 48 51 52 57 58 44 38 40 35 35 33 31 27 22 18 15 13 10 7 4 2 3 5 6 6
40 44 48 46 41 36 32 25 31 20 27 31 35 39 40 41 42 42 37 38 44 42 30 28 39 34 29 32 32 26 22 20 17 15 12 10 8 7 5 3 5 6 6
Wind_Direction
258 246 239 232 232 237 236 232 231 231 227 226 227 227 228 227 226 226 224 223 223 221 223 224 226 235 245 243 238 233 231 233 238 240 246 252 259 259 256 264 272 278 283
280 255 248 237 233 233 238 239 238 233 234 231 232 230 230 230 230 227 224 226 227 227 223 225 228 233 240 231 233 232 229 235 237 235 235 244 246 248 255 263 270 281 285
287 283 263 237 232 231 235 237 242 243 238 235 230 229 230 233 231 231 227 227 227 226 223 226 229 235 235 231 229 230 232 233 236 238 236 236 237 242 251 255 266 282 294
285 289 275 254 240 235 236 241 241 242 244 237 232 230 230 230 233 231 229 228 225 224 225 225 229 236 232 227 226 231 234 235 233 236 242 249 255 257 272 262 256 289 308
293 292 291 281 283 256 239 241 242 240 241 241 237 233 230 234 234 231 230 229 225 224 226 227 229 233 229 225 228 231 232 231 233 238 245 251 258 262 262 281 283 293 299
288 284 286 290 296 294 269 247 241 241 243 241 237 236 234 231 231 231 231 228 227 223 224 228 232 226 225 226 229 232 232 230 231 237 246 254 259 263 261 271 290 298 303
308 308 299 296 299 306 296 271 252 251 247 241 239 237 236 232 233 234 232 229 225 223 224 226 229 223 223 226 227 228 228 228 232 239 245 250 253 258 261 266 277 289 303
301 302 312 304 304 312 313 284 264 264 256 245 242 238 235 232 233 235 233 233 228 227 223 227 226 222 223 224 225 226 227 229 232 239 245 250 255 261 265 268 277 290 297
298 294 291 300 303 311 314 304 279 262 253 254 245 237 235 230 231 231 232 235 232 231 227 231 226 221 223 223 225 223 223 225 230 233 238 244 251 257 267 274 283 291 299
319 314 312 308 300 298 306 314 283 265 255 249 241 237 235 229 229 229 232 233 235 235 232 237 225 223 222 223 221 217 217 221 221 224 232 244 253 261 273 279 287 294 298
313 311 309 309 310 307 307 307 298 269 251 243 238 232 226 229 228 228 233 234 234 237 233 231 223 220 220 218 216 213 213 215 219 220 236 249 266 274 270 279 289 295 301
318 315 315 316 318 314 312 312 302 266 249 241 234 224 223 229 226 229 233 236 235 237 233 228 222 220 218 217 211 210 205 207 207 216 219 265 258 264 269 282 289 296 305
315 316 320 317 317 316 316 315 300 268 246 232 226 221 220 230 226 229 235 235 234 233 223 218 214 207 201 203 206 206 203 197 196 199 228 244 261 265 276 281 290 300 309
318 314 313 321 325 323 317 314 291 258 239 226 223 222 221 231 227 230 234 232 231 225 218 218 216 214 205 199 193 206 199 206 198 200 216 242 255 263 271 283 295 304 314
316 322 320 318 320 319 318 319 286 260 239 226 221 218 220 230 232 230 231 229 226 222 219 217 209 205 199 200 191 187 204 211 207 237 236 225 247 257 273 286 298 310 316
318 323 321 321 324 328 327 315 305 277 249 228 224 221 227 232 234 228 227 225 224 221 219 217 210 201 201 194 199 199 190 198 223 224 202 229 237 258 275 291 307 314 323
319 318 322 323 321 322 320 316 306 297 269 242 235 231 231 232 231 230 225 225 222 219 215 211 203 194 192 189 196 198 203 209 207 198 218 223 243 261 279 295 305 320 322
323 321 325 325 323 318 314 314 299 291 281 254 241 233 231 228 230 223 218 217 217 215 210 202 195 190 190 195 196 185 200 206 197 193 217 226 247 266 282 290 298 307 320
319 318 315 315 315 315 314 307 292 287 279 260 248 243 239 230 226 216 214 213 212 206 205 201 193 191 185 184 176 195 205 186 183 197 217 228 245 267 283 288 302 314 318
322 322 320 314 315 320 314 304 296 281 280 280 256 247 234 229 220 215 211 208 207 205 198 188 187 189 184 183 187 200 194 176 173 201 211 222 247 267 280 289 305 317 332
310 315 314 308 311 321 320 305 304 274 252 261 257 247 235 223 219 213 210 206 200 199 187 184 183 184 184 183 194 202 177 180 182 195 207 223 246 263 278 294 302 323 340
307 315 308 303 308 316 320 312 304 280 264 255 251 242 235 221 215 211 203 201 198 189 183 181 177 177 183 199 199 180 184 174 183 195 203 222 242 259 276 288 304 329 349
306 310 307 301 305 307 310 312 310 286 254 252 242 234 226 217 211 205 199 194 193 186 183 176 173 175 189 185 173 182 178 174 183 190 197 211 231 255 270 292 309 331 345
304 305 307 303 305 299 308 314 319 306 246 233 227 220 214 207 204 201 200 195 188 183 177 174 175 179 177 175 176 180 174 180 184 189 196 203 215 237 277 317 341 336 336
298 300 306 304 300 291 297 314 331 269 233 220 216 210 205 200 193 193 189 188 186 186 178 174 187 185 181 175 173 177 178 182 186 191 199 205 218 235 262 325 5 0 331
295 300 303 299 291 285 287 314 313 253 234 214 207 205 196 190 185 180 170 173 174 169 178 196 188 183 180 168 180 172 176 184 190 198 206 213 222 240 262 312 355 354 341